Hourly Data Report for April 14, 2021

CLYDE RIVER A
NUNAVUT
Current Station Operator: NAVCAN

70°29'09.000" N
68°31'01.000" W
26.50 m
2400804
71090
YCY

Download Data

Hourly Data (April 2021)
Hourly Data Report for April 14, 2021
TIME
LST
Temp Definition
°C
Dew Point Definition
°C
Rel Hum Definition
%
Precip. Amount Definition
mm

Wind Dir Definition
10's deg

Wind Spd Definition
km/h
Visibility Definition
km
Stn Press Definition
kPa
Hmdx Definition


Wind Chill Definition


Weather Definition


00:00 -20.2 -22.1 85 0.0 30 18 16.1 102.80   -30 LegendNANA
01:00 -19.4 -21.6 83 0.0 28 17 16.1 102.83   -29 LegendNANA
02:00 -21.6 -24.4 78 0.0 29 17 16.1 102.83   -32 LegendNANA
03:00 -20.6 -23.4 79 0.0 32 22 16.1 102.85   -32 LegendNANA
04:00 -20.8 -23.7 78 0.0 31 22 16.1 102.87   -32 LegendNANA
05:00 -19.0 -21.8 79 0.0 33 18 16.1 102.89   -29 LegendNANA
06:00 -19.1 -21.7 80 0.0 32 18 16.1 102.89   -29 LegendNANA
07:00 -18.5 -21.1 80 0.0 32 13 16.1 102.90   -27 LegendNANA
08:00 -17.5 -20.6 77 0.0 28 9 16.1 102.90   -24 LegendNANA
09:00 -17.3 -20.8 74 0.0 28 9 16.1 102.87   -24 LegendNANA
10:00 -17.1 -20.1 78 0.0 31 11 16.1 102.85   -24 LegendNANA
11:00 -17.0 -19.7 80 0.0 34 18 16.1 102.81   -26 LegendNANA
12:00 -16.6 -19.6 78 0.0 31 17 16.1 102.79   -25 LegendNANA
13:00 -16.2 -19.6 76 0.0 31 21 16.1 102.77   -26 LegendNANA
14:00 -16.1 -19.3 77 0.0 32 21 16.1 102.77   -26 LegendNANA
15:00 -16.9 -19.9 78 0.0 33 26 16.1 102.76   -28 LegendNANA
16:00 -17.5 -20.8 76 0.0 32 30 16.1 102.74   -29 LegendNANA
17:00 -18.1 -21.4 76 0.0 31 30 16.1 102.74   -30 LegendNANA
18:00 -19.2 -22.3 77 0.0 30 22 16.1 102.75   -30 LegendNANA
19:00 -20.6 -23.4 79 0.0 30 26 16.1 102.75   -33 LegendNANA
20:00 -21.8 -24.7 78 0.0 29 26 16.1 102.72   -34 LegendNANA
21:00 -22.0 -24.9 78 0.0 29 30 16.1 102.69   -35 LegendNANA
22:00 -21.2 -24.7 74 0.0 29 28 16.1 102.65   -34 LegendNANA
23:00 -20.4 -24.4 71 0.0 29 28 16.1 102.63   -33 LegendNANA

Notes on Data Quality.

Legend

  • E = Estimated
  • M = Missing
  • NA = Not Available*
  • [empty] = Indicates an unobserved value
Date modified: